Location: Moy Burn
(57.3833°N, 4.0667°W)
Time: 10:12:48
(UTC+00:00)

Terra - Pass Details

Date: 08 August 2020
Orbit: 701 x 703 km, 98.2° (Epoch: 19 September)

Event Time Altitude Azimuth Distance (km) Brightness Sun altitude
Exits shadow 23:39:53 - 229° (SW) 2,475 4.3 -16.3°
Reaches altitude 10° 23:41:05 10° 240° (WSW) 2,175 4.2 -16.3°
Maximum altitude 23:43:50 15° 276° (W) 1,851 4.2 -16.4°
Drops below altitude 10° 23:46:36 10° 311° (NW) 2,184 5.1 -16.5°
Sets 23:49:50 0° 335° (NNW) 3,109 6.6 -16.5°
